Regional Weather Roundup
Issued by NWS Newport/Morehead, NC

Current Version | Previous Version | Graphics & Text | Print | Product List | Glossary Off
Versions: 1 2 3 4 5 6 7 8 9 10 11 12 13 14 15 16 17 18 19 20 21 22 23 24 25 26 27 28 29 30 31 32 33 34 35 36 37 38 39 40 41 42 43 44 45 46 47 48 49 50

000
ASUS42 KMHX 231025
RWRMHX
WEATHER ROUNDUP FOR EASTERN NORTH CAROLINA
NATIONAL WEATHER SERVICE NEWPORT/MOREHEAD CITY NC
600 AM EDT SAT JUL 23 2016

NOTE: "FAIR" INDICATES FEW OR NO CLOUDS BELOW 12,000 FEET
WITH NO SIGNIFICANT WEATHER AND/OR OBSTRUCTIONS TO VISIBILITY

NCZ015>017-031-032-045>047-102-103-231100-
NORTH COAST

CITY           SKY/WX    TMP DP  RH WIND       PRES   REMARKS
EDENTON        CLEAR     79  71  77 SW7       29.99S
ELIZABETH CITY CLEAR     75  71  87 SW7       29.97R
KITTY HAWK     SUNNY     77  72  85 SW6       29.97S
MANTEO           N/A     77  75  94 W9        29.99R

$$

NCZ045>047-081-094-103-104-231100-
CENTRAL COAST

CITY           SKY/WX    TMP DP  RH WIND       PRES   REMARKS
FRISCO         CLEAR     81  73  76 W7        30.00S

$$

NCZ095-097-098-100-101-231100-
SOUTHERN COAST

CITY           SKY/WX    TMP DP  RH WIND       PRES   REMARKS
BEAUFORT       CLOUDY    81  73  76 SW6       30.00S
CEDAR ISLAND   NOT AVBL
JACKSONVILLE   PTCLDY    74  70  87 SW3       30.00R
PINEY ISLAND   SUNNY    N/A N/A N/A S5        30.00
WILMINGTON     MOCLDY    76  73  91 CALM      30.01R


$$

NCZ011>013-027>030-043-044-078>080-089-090>093-098-231100-
COASTAL PLAIN

CITY           SKY/WX    TMP DP  RH WIND       PRES   REMARKS
AHOSKIE        CLEAR     71  70  97 CALM      29.98R
CLINTON        LGT RAIN  76  75  97 SW3       30.00F
ELIZABETHTOWN  PTCLDY    76  73  91 CALM      29.99S
GOLDSBORO      CLEAR     74  74 100 SW2       29.98R
GREENVILLE     CLEAR     73  72  94 CALM      30.00S
HAVELOCK       CLEAR     74  70  87 S3        30.01S
KENANSVILLE    CLOUDY    73  71  95 CALM      30.00S
KINSTON        CLEAR     73  71  93 SW3       30.00R
NEW BERN       CLEAR     74  71  91 S3        30.01S
RICHLANDS      CLEAR     71  70  96 S5        30.01R
ROCKY MOUNT    CLEAR     71  71 100 CALM      29.98S
WASHINGTON     CLEAR     73  70  90 SW3       29.99R
WHITEVILLE     PTCLDY    75  72  91 CALM      30.00R

$$

AMZ130-135-150-152-154-156-158-170-250-252-270-ANZ085-086-088-633-658-670-231100-
MARINE OBSERVATIONS

STATION/POSITION TIME  TEMP    WIND        PRES    WAVE   SWELL
                       AIR SEA DIR/SP/G            HT/PER HT/PER
                 (UTC) (F)     (DEG/KT/KT) (MB)    (FT/S) (FT/S)
CHESAPEAKE LIGHT NOT AVBL
64 E VA BEACH    0950   80 80  230/ 17/ 19 1014.4    4/ 5   2/ 8
DUCK             1000   79 63  230/ 12/ 15 1014.6
2 E DUCK         0911      69                N/A     2/ 8
OREGON INLET     0900   81 85  230/ 15/ 16 1015.2
13E OREGON INLT  1000      82                N/A     2/ 8   2/ 8
HATTERAS CG      1000   80 83  230/  6/  8 1015.6
DIAMOND BUOY     0950   83 85  240/ 12/ 14 1016.0    2/ 8   2/ 8
CAPE LOOKOUT     1000   81     220/  4/  5 1015.9
BEAUFORT LAB     1000   82 83  230/  2/  5 1015.4
30 SE NEW RVR IN 1008   83 85  220/  8/ 10 1016.3
30 SE NEW RVR IN 0925      84                N/A     2/ 8
27 SE WRIGHTSVLE 1008   84 84  220/  8/ 10 1016.4
5 SE WRIGHTSVLE  1008   83 83  250/  8/ 10 1017.1
225 S CAPE HAT   0950   81 84   CALM  /  2 1016.9    3/ 9   3/ 9
41 SE CHARLESTON 0950   84 86  230/ 10/ 12 1016.0    3/ 8   2/ 8

$$




USA.gov is the U.S. government's official web portal to all federal, state and local government web resources and services.